Weather History for Red Wing, MN

Change the Weather History Date:

Tuesday, March 5, 2013

  Actual Average Record
Temperature  
Mean Temperature 27 °F -  
Max Temperature 30 °F 29 °F 42 °F (2009)
Min Temperature 24 °F 14 °F -14 °F (2003)
Degree Days  
Heating Degree Days 38    
Moisture  
Dew Point 22 °F    
Average Humidity 83    
Maximum Humidity 93    
Minimum Humidity 69    
Precipitation  
Precipitation 0.27 in - - ()
Sea Level Pressure  
Sea Level Pressure 30.07 in    
Wind  
Wind Speed 7 mph (NE)    
Max Wind Speed 12 mph    
Max Gust Speed 18 mph    
Visibility 4 miles    
Events Snow    
Averages and records for this station are not official NWS values.
T = Trace of Precipitation, MM = Missing Value Source: NWS Daily Summary

Daily Weather History Graph

Daily Weather History Graph

Search for Another Location

Airport:

Trip Planner

Search our weather history database for the weather conditions in past years. The results will help you decide how hot, cold, wet, or windy it might be!

Date:

Astronomy

Mar. 05, 2013 Rise Set
Actual Time 6:39 AM CST 6:03 PM CST
Civil Twilight 6:10 AM CST 6:32 PM CST
Nautical Twilight 5:37 AM CST 7:06 PM CST
Astronomical Twilight 5:03 AM CST 7:40 PM CST
Moon 2:03 AM CST (3/5) 11:32 AM CST (3/5)
Length of Visible Light 12h 21m
Length of Day
11h 23m
Last Quarter, 40% of the Moon is Illuminated
Mar 5
Last Quarter
Mar 11
New
Mar 19
First Quarter
Mar 27
Full
Apr 2
Last Quarter

Hourly Weather History & Observations

Time (CST) Temp. Windchill Dew Point Humidity Pressure Visibility Wind Dir Wind Speed Gust Speed Precip Events Conditions
12:35 AM 26.6 °F 19.1 °F 24.8 °F 93% 30.00 in 0.5 mi East 6.9 mph - N/A Snow Heavy Snow
12:55 AM 26.6 °F 19.1 °F 24.8 °F 93% 29.99 in 0.5 mi East 6.9 mph - 0.01 in Snow Snow
1:15 AM 26.6 °F 17.5 °F 24.8 °F 93% 29.98 in 0.5 mi East 9.2 mph - N/A Snow Snow
1:35 AM 26.6 °F 18.2 °F 24.8 °F 93% 29.98 in 0.8 mi East 8.1 mph - N/A Snow Snow
1:55 AM 24.8 °F 16.9 °F 23.0 °F 93% 29.98 in 0.5 mi East 6.9 mph - N/A Snow Snow
2:15 AM 24.8 °F 17.9 °F 23.0 °F 93% 29.98 in 1.2 mi ESE 5.8 mph - N/A Snow Snow
2:35 AM 24.8 °F 19.1 °F 23.0 °F 93% 29.98 in 1.2 mi East 4.6 mph - 0.01 in Snow Light Snow
2:55 AM 24.8 °F 19.1 °F 23.0 °F 93% 29.98 in 1.0 mi East 4.6 mph - 0.03 in Snow Snow
3:15 AM 24.8 °F 19.1 °F 23.0 °F 93% 29.98 in 1.0 mi East 4.6 mph - 0.01 in Snow Snow
3:35 AM 24.8 °F 19.1 °F 23.0 °F 93% 29.97 in 0.8 mi East 4.6 mph - 0.01 in Snow Snow
3:55 AM 24.8 °F 17.9 °F 23.0 °F 93% 29.97 in 0.8 mi East 5.8 mph - 0.02 in Snow Snow
4:15 AM 24.8 °F 17.9 °F 23.0 °F 93% 29.97 in 0.8 mi East 5.8 mph - 0.01 in Snow Snow
5:15 AM 24.8 °F 17.9 °F 23.0 °F 93% 29.98 in 0.8 mi East 5.8 mph - 0.01 in Snow Snow
5:35 AM 24.8 °F 17.9 °F 23.0 °F 93% 29.98 in 0.8 mi East 5.8 mph - 0.03 in Snow Snow
5:55 AM 24.8 °F 17.9 °F 23.0 °F 93% 29.98 in 0.5 mi East 5.8 mph - 0.03 in Snow Snow
6:35 AM 24.8 °F 17.9 °F 21.2 °F 86% 29.98 in 1.0 mi East 5.8 mph - 0.01 in Snow Snow
6:55 AM 24.8 °F 17.9 °F 21.2 °F 86% 29.99 in 1.2 mi East 5.8 mph - 0.02 in Snow Light Snow
7:35 AM 24.8 °F 19.1 °F 21.2 °F 86% 29.99 in 0.5 mi East 4.6 mph - 0.01 in Snow Snow
7:55 AM 24.8 °F 19.1 °F 21.2 °F 86% 29.99 in 0.2 mi ENE 4.6 mph - 0.02 in Snow Snow
8:15 AM 24.8 °F 16.9 °F 21.2 °F 86% 29.99 in 0.2 mi East 6.9 mph - 0.02 in Snow Snow
8:35 AM 24.8 °F 19.1 °F 21.2 °F 86% 30.00 in 0.5 mi ENE 4.6 mph - 0.02 in Snow Snow
8:55 AM 24.8 °F 17.9 °F 21.2 °F 86% 30.00 in 0.5 mi East 5.8 mph - 0.03 in Snow Snow
9:15 AM 24.8 °F 16.9 °F 21.2 °F 86% 30.01 in 0.5 mi East 6.9 mph - 0.01 in Snow Light Snow
9:35 AM 24.8 °F 16.9 °F 21.2 °F 86% 30.01 in 0.8 mi East 6.9 mph - 0.02 in Snow Light Snow
9:55 AM 26.6 °F 18.2 °F 21.2 °F 80% 30.01 in 0.8 mi ENE 8.1 mph - 0.03 in Snow Light Snow
10:15 AM 26.6 °F 20.0 °F 21.2 °F 80% 30.01 in 0.8 mi East 5.8 mph - N/A Snow Light Snow
10:34 AM 26.6 °F 18.2 °F 21.2 °F 80% 30.01 in 2.0 mi East 8.1 mph - 0.01 in Snow Light Snow
10:55 AM 26.6 °F 21.2 °F 21.2 °F 80% 30.02 in 1.2 mi East 4.6 mph - 0.01 in Snow Light Snow
11:15 AM 26.6 °F 19.1 °F 21.2 °F 80% 30.03 in 1.0 mi East 6.9 mph - 0.01 in Snow Light Snow
11:34 AM 26.6 °F 21.2 °F 21.2 °F 80% 30.03 in 0.5 mi East 4.6 mph - 0.01 in Snow Light Snow
12:15 PM 26.6 °F 21.2 °F 23.0 °F 86% 30.04 in 0.8 mi NE 4.6 mph - 0.01 in Snow Light Snow
12:35 PM 28.4 °F 21.2 °F 23.0 °F 80% 30.04 in 0.8 mi NNE 6.9 mph - 0.02 in Snow Light Snow
12:55 PM 28.4 °F 22.2 °F 23.0 °F 80% 30.04 in 1.2 mi NE 5.8 mph - 0.03 in Snow Light Snow
1:15 PM 28.4 °F 23.3 °F 24.8 °F 86% 30.04 in 1.8 mi North 4.6 mph - 0.01 in Snow Light Snow
1:35 PM 28.4 °F 21.2 °F 23.0 °F 80% 30.04 in 2.5 mi NNE 6.9 mph - 0.02 in Snow Light Snow
1:55 PM 30.2 °F 22.6 °F 23.0 °F 75% 30.04 in 4.0 mi NNE 8.1 mph - 0.02 in   Overcast
2:15 PM 30.2 °F 20.8 °F 24.8 °F 80% 30.05 in 4.0 mi NE 11.5 mph - N/A Snow Light Snow
2:35 PM 30.2 °F 20.8 °F 24.8 °F 80% 30.05 in 2.5 mi NNE 11.5 mph - N/A Snow Light Snow
2:55 PM 28.4 °F 21.2 °F 23.0 °F 80% 30.06 in 2.5 mi NNE 6.9 mph - N/A Snow Light Snow
3:15 PM 28.4 °F 20.4 °F 21.2 °F 74% 30.07 in 3.0 mi NE 8.1 mph 18.4 mph N/A Snow Light Snow
3:35 PM 28.4 °F 19.7 °F 21.2 °F 74% 30.08 in 4.0 mi NNE 9.2 mph - N/A Snow Light Snow
3:55 PM 28.4 °F 19.7 °F 21.2 °F 74% 30.09 in 7.0 mi NNE 9.2 mph - N/A   Overcast
4:15 PM 28.4 °F 19.1 °F 21.2 °F 74% 30.10 in 10.0 mi NNE 10.4 mph - N/A   Overcast
4:35 PM 30.2 °F 25.4 °F 21.2 °F 69% 30.11 in 10.0 mi North 4.6 mph - N/A   Overcast
4:55 PM 28.4 °F 21.2 °F 21.2 °F 74% 30.12 in 10.0 mi NNE 6.9 mph - N/A   Overcast
5:14 PM 28.4 °F 20.4 °F 21.2 °F 74% 30.13 in 10.0 mi NNE 8.1 mph - N/A   Mostly Cloudy
5:35 PM 28.4 °F 21.2 °F 21.2 °F 74% 30.14 in 10.0 mi North 6.9 mph - N/A Snow Light Snow
5:55 PM 28.4 °F 23.3 °F 21.2 °F 74% 30.15 in 10.0 mi North 4.6 mph - N/A   Overcast
6:15 PM 26.6 °F 19.1 °F 21.2 °F 80% 30.16 in 10.0 mi North 6.9 mph - N/A   Overcast
6:35 PM 28.4 °F 21.2 °F 21.2 °F 74% 30.17 in 10.0 mi NNW 6.9 mph - N/A   Overcast
6:55 PM 26.6 °F 20.0 °F 21.2 °F 80% 30.18 in 10.0 mi NNW 5.8 mph - N/A   Overcast
7:15 PM 26.6 °F 19.1 °F 21.2 °F 80% 30.18 in 10.0 mi North 6.9 mph - N/A   Overcast
7:35 PM 26.6 °F 21.2 °F 21.2 °F 80% 30.19 in 7.0 mi NNW 4.6 mph - N/A Snow Light Snow
7:55 PM 26.6 °F 18.2 °F 21.2 °F 80% 30.19 in 7.0 mi NNW 8.1 mph - N/A Snow Light Snow
8:15 PM 24.8 °F 17.9 °F 21.2 °F 86% 30.19 in 10.0 mi NNW 5.8 mph - N/A Snow Light Snow
8:35 PM 24.8 °F 17.9 °F 21.2 °F 86% 30.20 in 10.0 mi North 5.8 mph - N/A   Scattered Clouds
8:55 PM 24.8 °F 17.9 °F 21.2 °F 86% 30.20 in 10.0 mi North 5.8 mph - N/A   Scattered Clouds
9:15 PM 24.8 °F 16.9 °F 21.2 °F 86% 30.20 in 10.0 mi North 6.9 mph - N/A   Scattered Clouds
9:35 PM 24.8 °F 19.1 °F 21.2 °F 86% 30.22 in 10.0 mi North 4.6 mph - N/A   Mostly Cloudy
9:55 PM 26.6 °F 17.5 °F 21.2 °F 80% 30.23 in 10.0 mi North 9.2 mph - N/A   Overcast
10:15 PM 26.6 °F 19.1 °F 21.2 °F 80% 30.24 in 10.0 mi North 6.9 mph - N/A   Overcast
10:35 PM 26.6 °F 18.2 °F 19.4 °F 74% 30.24 in 10.0 mi North 8.1 mph - N/A   Overcast
10:55 PM 24.8 °F 17.9 °F 19.4 °F 80% 30.24 in 10.0 mi North 5.8 mph - N/A   Overcast
11:15 PM 24.8 °F 20.5 °F 19.4 °F 80% 30.24 in 10.0 mi NNE 3.5 mph - N/A   Overcast
11:35 PM 24.8 °F 17.9 °F 19.4 °F 80% 30.24 in 10.0 mi North 5.8 mph - N/A   Overcast
11:55 PM 24.8 °F 17.9 °F 19.4 °F 80% 30.26 in 10.0 mi NNW 5.8 mph - N/A   Overcast